Monett, MO

5:20 PM CST on December 16, 2017 (GMT -0600)
Monett

Weather History for KHFJ - February, 2013

Change the Weather History Date:

Sunday, February 24, 2013

  Actual Average (KJLN) Record (KJLN)
Temperature  
Mean Temperature 40 °F -  
Max Temperature 53 °F 49 °F 80 °F (1956)
Min Temperature 28 °F 31 °F 3 °F (1965)
Degree Days  
Heating Degree Days 24    
Moisture  
Dew Point 29 °F    
Average Humidity 66    
Maximum Humidity 81    
Minimum Humidity 47    
Precipitation  
Precipitation 0.00 in - - ()
Sea Level Pressure  
Sea Level Pressure 29.91 in    
Wind  
Wind Speed 9 mph (ESE)    
Max Wind Speed 15 mph    
Max Gust Speed 22 mph    
Visibility 10 miles    
Events      
Averages and records for this station are not official NWS values.
T = Trace of Precipitation, MM = Missing Value Source: NWS Daily Summary

Daily Weather History Graph

Daily Weather History Graph

Search for Another Location

Airport or City:

Trip Planner

Search our weather history database for the weather conditions in past years. The results will help you decide how hot, cold, wet, or windy it might be!

Date:

Astronomy

Feb. 24, 2013 Rise Set
Actual Time 6:53 AM CST 6:05 PM CST
Civil Twilight 6:27 AM CST 6:31 PM CST
Nautical Twilight 5:56 AM CST 7:02 PM CST
Astronomical Twilight 5:26 AM CST 7:32 PM CST
Moon 5:17 PM CST (2/24) 5:50 AM CST (2/24)
Length of Visible Light 12h 04m
Length of Day
11h 12m
Waxing Gibbous, 99% of the Moon is Illuminated
Feb 24
Waxing Gibbous
Feb 25
Full
Mar 4
Last Quarter
Mar 11
New
Mar 19
First Quarter

Hourly Weather History & Observations

Time (CST) Temp. Windchill Dew Point Humidity Pressure Visibility Wind Dir Wind Speed Gust Speed Precip Events Conditions
12:35 AM 30.2 °F 23.4 °F 23.0 °F 75% 29.97 in 10.0 mi ESE 6.9 mph - N/A   Clear
12:55 AM 30.2 °F 23.4 °F 21.2 °F 69% 29.97 in 10.0 mi East 6.9 mph - N/A   Clear
1:15 AM 30.2 °F 22.6 °F 23.0 °F 75% 29.97 in 10.0 mi East 8.1 mph - N/A   Clear
1:35 AM 28.4 °F 20.4 °F 23.0 °F 80% 29.97 in 10.0 mi ESE 8.1 mph - N/A   Clear
1:55 AM 30.2 °F 22.6 °F 23.0 °F 75% 29.97 in 10.0 mi ESE 8.1 mph - N/A   Clear
2:15 AM 30.2 °F 21.9 °F 23.0 °F 75% 29.96 in 10.0 mi ESE 9.2 mph - N/A   Clear
2:35 AM 30.2 °F 22.6 °F 23.0 °F 75% 29.95 in 10.0 mi ESE 8.1 mph - N/A   Clear
2:55 AM 30.2 °F 22.6 °F 23.0 °F 75% 29.95 in 10.0 mi ESE 8.1 mph - N/A   Clear
3:15 AM 30.2 °F 22.6 °F 23.0 °F 75% 29.94 in 10.0 mi ESE 8.1 mph - N/A   Clear
3:35 AM 30.2 °F 21.9 °F 23.0 °F 75% 29.93 in 10.0 mi East 9.2 mph - N/A   Clear
3:55 AM 30.2 °F 22.6 °F 23.0 °F 75% 29.94 in 10.0 mi ESE 8.1 mph - N/A   Clear
4:15 AM 30.2 °F 21.3 °F 23.0 °F 75% 29.93 in 10.0 mi ESE 10.4 mph - N/A   Clear
4:35 AM 30.2 °F 21.3 °F 23.0 °F 75% 29.93 in 10.0 mi ESE 10.4 mph - N/A   Clear
4:55 AM 30.2 °F 21.9 °F 23.0 °F 75% 29.93 in 10.0 mi ESE 9.2 mph - N/A   Clear
5:15 AM 30.2 °F 22.6 °F 23.0 °F 75% 29.94 in 10.0 mi ESE 8.1 mph - N/A   Clear
5:35 AM 30.2 °F 23.4 °F 23.0 °F 75% 29.95 in 10.0 mi SE 6.9 mph - N/A   Clear
5:55 AM 30.2 °F 21.9 °F 23.0 °F 75% 29.96 in 10.0 mi ESE 9.2 mph - N/A   Clear
6:15 AM 30.2 °F 21.9 °F 23.0 °F 75% 29.95 in 10.0 mi ESE 9.2 mph - N/A   Clear
6:35 AM 30.2 °F 20.8 °F 23.0 °F 75% 29.94 in 10.0 mi ESE 11.5 mph - N/A   Clear
6:55 AM 30.2 °F 21.3 °F 23.0 °F 75% 29.94 in 10.0 mi ESE 10.4 mph - N/A   Clear
7:15 AM 30.2 °F 20.8 °F 24.8 °F 80% 29.95 in 10.0 mi ESE 11.5 mph - N/A   Clear
7:35 AM 32.0 °F 23.0 °F 24.8 °F 75% 29.94 in 10.0 mi ESE 11.5 mph - N/A   Clear
7:55 AM 32.0 °F 23.0 °F 26.6 °F 80% 29.95 in 10.0 mi ESE 11.5 mph - N/A   Clear
8:15 AM 32.0 °F 22.5 °F 26.6 °F 80% 29.96 in 10.0 mi ESE 12.7 mph - N/A   Clear
8:35 AM 33.8 °F 26.4 °F 26.6 °F 75% 29.97 in 10.0 mi ESE 9.2 mph - N/A   Clear
8:55 AM 33.8 °F 25.8 °F 28.4 °F 81% 29.98 in 10.0 mi ESE 10.4 mph - N/A   Clear
9:15 AM 35.6 °F 28.6 °F 28.4 °F 75% 29.98 in 10.0 mi ESE 9.2 mph - N/A   Clear
9:35 AM 37.4 °F 30.8 °F 30.2 °F 75% 29.99 in 10.0 mi ESE 9.2 mph - N/A   Clear
9:55 AM 37.4 °F 30.8 °F 32.0 °F 81% 29.98 in 10.0 mi ESE 9.2 mph - N/A   Clear
10:15 AM 41.0 °F 35.2 °F 32.0 °F 70% 29.99 in 10.0 mi SE 9.2 mph - N/A   Clear
10:35 AM 42.8 °F 38.0 °F 32.0 °F 66% 29.99 in 10.0 mi SE 8.1 mph - N/A   Clear
10:55 AM 44.6 °F 39.7 °F 32.0 °F 61% 29.99 in 10.0 mi SE 9.2 mph - N/A   Clear
11:15 AM 44.6 °F 39.2 °F 33.8 °F 66% 29.99 in 10.0 mi SE 10.4 mph - N/A   Clear
11:35 AM 46.4 °F 41.5 °F 33.8 °F 62% 29.98 in 10.0 mi SSE 10.4 mph - N/A   Clear
11:55 AM 46.4 °F 41.9 °F 33.8 °F 62% 29.96 in 10.0 mi SE 9.2 mph 16.1 mph N/A   Clear
12:15 PM 48.2 °F - 33.8 °F 58% 29.96 in 10.0 mi ESE 10.4 mph 17.3 mph N/A   Clear
12:35 PM 50.0 °F - 33.8 °F 54% 29.94 in 10.0 mi SE 11.5 mph - N/A   Clear
12:55 PM 50.0 °F - 33.8 °F 54% 29.93 in 10.0 mi SE 10.4 mph - N/A   Clear
1:15 PM 50.0 °F - 33.8 °F 54% 29.92 in 10.0 mi ESE 10.4 mph 16.1 mph N/A   Clear
1:35 PM 51.8 °F - 33.8 °F 50% 29.91 in 10.0 mi ESE 11.5 mph - N/A   Clear
1:55 PM 51.8 °F - 33.8 °F 50% 29.90 in 10.0 mi ESE 9.2 mph - N/A   Clear
2:15 PM 51.8 °F - 33.8 °F 50% 29.89 in 10.0 mi SE 13.8 mph - N/A   Clear
2:35 PM 51.8 °F - 33.8 °F 50% 29.89 in 10.0 mi SE 10.4 mph - N/A   Clear
2:55 PM 53.6 °F - 33.8 °F 47% 29.89 in 10.0 mi SE 8.1 mph - N/A   Clear
3:15 PM 53.6 °F - 33.8 °F 47% 29.87 in 10.0 mi ESE 11.5 mph - N/A   Clear
3:35 PM 53.6 °F - 33.8 °F 47% 29.86 in 10.0 mi ESE 12.7 mph 18.4 mph N/A   Clear
3:55 PM 53.6 °F - 33.8 °F 47% 29.86 in 10.0 mi SE 12.7 mph 17.3 mph N/A   Clear
4:15 PM 53.6 °F - 33.8 °F 47% 29.86 in 10.0 mi SE 13.8 mph - N/A   Clear
4:35 PM 53.6 °F - 33.8 °F 47% 29.84 in 10.0 mi ESE 15.0 mph - N/A   Clear
4:55 PM 51.8 °F - 33.8 °F 50% 29.84 in 10.0 mi ESE 12.7 mph - N/A   Clear
5:15 PM 51.8 °F - 33.8 °F 50% 29.84 in 10.0 mi ESE 11.5 mph 16.1 mph N/A   Clear
5:35 PM 50.0 °F - 32.0 °F 50% 29.84 in 10.0 mi ESE 12.7 mph 20.7 mph N/A   Clear
5:55 PM 48.2 °F - 32.0 °F 54% 29.84 in 10.0 mi ESE 11.5 mph 16.1 mph N/A   Clear
6:15 PM 46.4 °F 41.5 °F 32.0 °F 57% 29.85 in 10.0 mi East 10.4 mph - N/A   Clear
6:35 PM 46.4 °F 41.9 °F 32.0 °F 57% 29.84 in 10.0 mi East 9.2 mph - N/A   Clear
6:55 PM 44.6 °F 39.2 °F 32.0 °F 61% 29.84 in 10.0 mi East 10.4 mph - N/A   Clear
7:15 PM 44.6 °F 38.1 °F 32.0 °F 61% 29.83 in 10.0 mi East 13.8 mph 17.3 mph N/A   Clear
7:35 PM 44.6 °F 37.8 °F 32.0 °F 61% 29.83 in 10.0 mi ESE 15.0 mph 20.7 mph N/A   Clear
7:55 PM 44.6 °F 37.8 °F 32.0 °F 61% 29.83 in 10.0 mi ESE 15.0 mph 20.7 mph N/A   Clear
8:15 PM 44.6 °F 37.8 °F 32.0 °F 61% 29.83 in 10.0 mi ESE 15.0 mph 21.9 mph N/A   Clear
8:35 PM 44.6 °F 37.8 °F 32.0 °F 61% 29.84 in 10.0 mi ESE 15.0 mph 21.9 mph N/A   Clear
8:55 PM 42.8 °F 36.2 °F 32.0 °F 66% 29.85 in 10.0 mi ESE 12.7 mph 19.6 mph N/A   Clear
9:15 PM 42.8 °F 37.0 °F 32.0 °F 66% 29.86 in 10.0 mi ESE 10.4 mph - N/A   Clear
9:35 PM 41.0 °F 35.2 °F 32.0 °F 70% 29.87 in 10.0 mi SE 9.2 mph - N/A   Clear
9:55 PM 41.0 °F 35.2 °F 32.0 °F 70% 29.88 in 10.0 mi SE 9.2 mph - N/A   Clear
10:15 PM 41.0 °F 35.8 °F 32.0 °F 70% 29.89 in 10.0 mi ESE 8.1 mph - N/A   Clear
10:35 PM 41.0 °F 35.8 °F 32.0 °F 70% 29.89 in 10.0 mi ESE 8.1 mph - N/A   Clear
10:55 PM 39.2 °F 34.2 °F 32.0 °F 75% 29.87 in 10.0 mi East 6.9 mph - N/A   Clear
11:15 PM 39.2 °F 33.0 °F 32.0 °F 75% 29.86 in 10.0 mi East 9.2 mph - N/A   Clear
11:35 PM 37.4 °F 32.1 °F 32.0 °F 81% 29.87 in 10.0 mi East 6.9 mph - N/A   Clear
11:55 PM 37.4 °F 32.8 °F 32.0 °F 81% 29.88 in 10.0 mi East 5.8 mph - N/A   Clear